Orbital Elements at Epoch 2459000.5 (2020-May-31.0) TDB
Reference: JPL 17 (heliocentric ecliptic J2000)
Element | Value | Uncertainty (1-sigma) | Units |
e | .07378697250666563 | 5.2512e-08 | |
a | 2.858732883690583 | 3.9104e-08 | au |
q | 2.647795638997805 | 1.6012e-07 | au |
i | 7.58630682458414 | 9.0651e-06 | deg |
node | 165.3948472776931 | 4.4291e-05 | deg |
peri | 281.9939952780026 | 7.7192e-05 | deg |
M | 42.02853569868024 | 6.2853e-05 | deg |
tp | 2458794.389293822993 (2019-Nov-06.88929382) | 0.00030757 | TDB |
period | 1765.4637019879 4.83 | 3.6224e-05 9.918e-08 | d yr |
n | .2039124336539134 | 4.1839e-09 | deg/d |
Q | 3.069670128383361 | 4.199e-08 | au |
|
| | Orbit Determination Parameters
Additional Information
|